Regional Weather Roundup
Issued by NWS

Home | Current Version | Previous Version | Text Only | Print | Product List | Glossary On
Versions: 1 2 3 4 5 6 7 8 9 10 11 12 13 14 15 16 17 18 19 20 21 22 23 24 25 26 27 28 29 30 31 32 33 34 35 36 37 38 39 40 41 42 43 44 45 46 47 48 49 50
000
ASUS43 KDMX 020708
RWRIA

WEATHER ROUNDUP FOR IOWA
NATIONAL WEATHER SERVICE DES MOINES IA
200 AM CDT MON MAY 02 2016

NOTE: "FAIR" INDICATES FEW OR NO CLOUDS BELOW 12,000 FEET WITH NO
SIGNIFICANT WEATHER AND/OR OBSTRUCTIONS TO VISIBILITY.

* - THESE STATIONS ARE NOT NWS STATIONS...THUS NOT UNDER NWS
QUALITY CONTROL.  THEY ALSO DO NOT REPORT WEATHER SUCH
AS PRECIPITATION OR FOG.

IAZ001>003-012>014-020>022-031>034-043>046-020800-
   NORTHWEST IOWA

CITY           SKY/WX    TMP DP  RH WIND       PRES   REMARKS
CARROLL *      PTCLDY    45  43  93 VRB3      30.13S
CHEROKEE *     CLEAR     37  37 100 CALM      30.15S
DENISON *      CLOUDY    46 N/A N/A N3        30.13S
LE MARS *      CLEAR     37  37 100 CALM      30.17S
ORANGE CITY *  CLEAR     41  37  87 N5        30.15F
SHELDON *      CLEAR     37  37 100 NW5       30.14S WCI  34
SIOUX CITY     CLEAR     39  36  89 NW5       30.16S
SPENCER        PTCLDY    37  35  92 NW5       30.14F WCI  33
STORM LAKE *   CLEAR     45  39  81 N7        30.14S
$$

IAZ055>058-069>071-079>083-090>094-020800-
   SOUTHWEST IOWA

CITY           SKY/WX    TMP DP  RH WIND       PRES   REMARKS
ATLANTIC *     MOCLDY    45  43  93 N5        30.13F
AUDUBON *      CLEAR     43  39  87 CALM      30.15R
CLARINDA *       N/A    N/A N/A N/A MISG        N/A
COUNCIL BLFS * CLOUDY    48  46  93 CALM      30.15F
CRESTON *      CLOUDY    45  45 100 W3        30.14S
HARLAN  *      CLOUDY    46  45  93 NW7       30.17F
LAMONI         CLOUDY    47  45  93 NW6       30.11F
RED OAK *      CLOUDY   117 N/A N/A CALM      30.14F
SHENANDOAH *   CLOUDY    46  46 100 W3        30.15F
$$

IAZ047>049-059>061-072>074-084-020800-
   CENTRAL IOWA

CITY           SKY/WX    TMP DP  RH WIND       PRES   REMARKS
AMES           CLEAR     42  41  96 N7        30.12S
ANKENY *       CLOUDY    46  46 100 N5        30.12S
BOONE *        CLEAR     41  41 100 N5        30.11F
CHARITON *     CLOUDY    46  46 100 NW6       30.11F
DES MOINES     CLOUDY    48  44  86 NW3       30.12S
GRINNELL*      PTCLDY    45  43  93 N8        30.10S
KNOXVILLE *    CLOUDY    46  46 100 W6        30.09F
MARSHALLTOWN   CLEAR     42  41  96 N7        30.10F
NEWTON *       CLOUDY    46  46 100 N8        30.11R
PELLA *        CLOUDY    46  46 100 CALM      30.11F
$$

IAZ004>006-015-016-023>025-035-036-020800-
   NORTH CENTRAL IOWA

CITY           SKY/WX    TMP DP  RH WIND       PRES   REMARKS
ALGONA *       MOCLDY    46  41  81 W6        30.13F
CLARION *      PTCLDY    45  45 100 NW6       30.13S
ESTHERVILLE    CLEAR     41  37  86 NW7       30.13F
FORT DODGE *     N/A     37  34  87 CALM      30.13F VSB 3/4
MASON CITY     CLOUDY    42  41  96 W7        30.13F
FOREST CITY *  CLOUDY    41  41 100 CALM      30.13F
WEBSTER CITY * CLEAR     43  43 100 NW5       30.11S
IOWA FALLS *   CLOUDY    43  41  93 NW3       30.13F FOG
$$

IAZ007>011-017>019-026>030-037>042-050>054-066-020800-
   NORTHEAST IOWA

CITY           SKY/WX    TMP DP  RH WIND       PRES   REMARKS
CEDAR RAPIDS   PTCLDY    45  44  97 N9        30.07F
CHARLES CITY * MOCLDY    45  45 100 NW3       30.12F
CLINTON *      LGT RAIN  48  45  89 NE8       30.06S
DECORAH *      PTCLDY    41  41 100 CALM      30.10S FOG
DUBUQUE        MOCLDY    46  42  86 NE7       30.06S
MONTICELLO *   CLOUDY    45  43  93 N6        30.08R
OELWEIN *      CLOUDY    45  45 100 NW8       30.12R
WATERLOO       CLOUDY    44  42  93 NW3       30.11S
$$

IAZ064-065-067-068-078-020800-
   EAST CENTRAL IOWA

CITY           SKY/WX    TMP DP  RH WIND       PRES   REMARKS
DAVENPORT      CLOUDY    48  46  93 N8        30.06S
IOWA CITY      CLOUDY    48  45  89 N6        30.09S
MT. PLEASANT * CLOUDY    50  50 100 NW6       30.08S
MUSCATINE *    CLOUDY    48  46  93 NW6       30.08R
QUAD CITIES    CLOUDY    50  46  86 CALM      30.05S
$$

IAZ062-063-075>077-085>089-095>099-020800-
   SOUTHEAST IOWA

CITY           SKY/WX    TMP DP  RH WIND       PRES   REMARKS
BURLINGTON     CLOUDY    49  48  97 NW5       30.06S
FAIRFIELD *    CLOUDY    48  46  93 NW6       30.08F
FORT MADISON * CLOUDY    48  48 100 NW5       30.08S
KEOKUK *       CLOUDY    50  48  93 NW5       30.07S FOG
OSKALOOSA *    CLOUDY    46  46 100 W5        30.10S
OTTUMWA        CLOUDY    47  46  97 W3        30.09F
WASHINGTON *   CLOUDY    48  48 100 N7        30.08F
$$

ABBREVIATIONS USED IN REMARKS
   TC - TEMPERATURES IN CELSIUS
  WCI - WIND CHILL INDEX
   HX - HEAT INDEX
  VSB - VISIBILITY
$$





USA.gov is the U.S. government's official web portal to all federal, state and local government web resources and services.